Location: ???????
(54.6339°N, 39.4245°E)
Time: 02:32:27
(UTC+00:00)

Cosmos 2173 Rocket - Pass Details

Date: 19 May 2025
Orbit: 944 x 999 km, 83.0° (Epoch: 13 June)

Event Time Altitude Azimuth Distance (km) Brightness Sun altitude
Rises 21:23:41 0° 348° (NNW) 3,735 8.7 -15.4°
Reaches altitude 10° 21:26:14 10° 350° (N) 2,778 7.7 -15.4°
Maximum altitude 21:32:39 81° 79° (ENE) 1,011 4.1 -15.3°
Enters shadow 21:37:11 20° 165° (SSE) 2,094 5.2 -15.3°
